Time,TemperatureF,DewpointF,PressureIn,WindDirection,WindDirectionDegrees,WindSpeedMPH,WindSpeedGustMPH,Humidity,HourlyPrecipIn,Conditions,Clouds,dailyrainin,SoftwareType,DateUTC
2013-03-17 00:00:00,59.8,51.9,30.08,WSW,252,0.0,0.0,75,0.00,,,0.00,Wunderground v.1.15,2013-03-17 04:00:00,
2013-03-17 00:04:00,59.8,51.9,30.08,WSW,240,0.0,0.0,75,0.00,,,0.00,Wunderground v.1.15,2013-03-17 04:04:00,
2013-03-17 00:06:00,59.9,52.0,30.08,SSE,153,3.0,3.0,75,0.00,,,0.00,Wunderground v.1.15,2013-03-17 04:06:00,
2013-03-17 00:12:00,60.1,52.1,30.08,SSW,213,0.0,0.0,75,0.00,,,0.00,Wunderground v.1.15,2013-03-17 04:12:00,
2013-03-17 00:17:00,60.2,51.9,30.08,SW,229,0.0,0.0,74,0.00,,,0.00,Wunderground v.1.15,2013-03-17 04:17:00,
2013-03-17 00:22:00,60.4,52.1,30.08,WSW,243,0.0,0.0,74,0.00,,,0.00,Wunderground v.1.15,2013-03-17 04:22:00,
2013-03-17 00:28:00,60.4,51.7,30.08,WSW,240,0.0,0.0,73,0.00,,,0.00,Wunderground v.1.15,2013-03-17 04:28:00,
2013-03-17 00:33:00,60.5,51.8,30.08,WSW,249,0.0,0.0,73,0.00,,,0.00,Wunderground v.1.15,2013-03-17 04:33:00,
2013-03-17 00:39:00,60.4,51.3,30.08,WSW,240,0.0,0.0,72,0.00,,,0.00,Wunderground v.1.15,2013-03-17 04:39:00,
2013-03-17 00:45:00,60.4,51.0,30.07,WSW,240,0.0,0.0,71,0.00,,,0.00,Wunderground v.1.15,2013-03-17 04:45:00,
2013-03-17 00:50:00,60.2,50.8,30.07,WSW,240,0.0,0.0,71,0.00,,,0.00,Wunderground v.1.15,2013-03-17 04:50:00,
2013-03-17 00:56:00,60.1,51.0,30.07,WSW,240,0.0,0.0,72,0.00,,,0.00,Wunderground v.1.15,2013-03-17 04:56:00,
2013-03-17 01:01:00,59.9,50.8,30.07,WSW,240,0.0,0.0,72,0.00,,,0.00,Wunderground v.1.15,2013-03-17 05:01:00,
2013-03-17 01:07:00,59.6,50.9,30.07,WSW,240,0.0,0.0,73,0.00,,,0.00,Wunderground v.1.15,2013-03-17 05:07:00,
2013-03-17 01:12:00,59.3,50.6,30.07,WSW,240,0.0,0.0,73,0.00,,,0.00,Wunderground v.1.15,2013-03-17 05:12:00,
2013-03-17 01:18:00,58.9,50.3,30.07,WSW,240,0.0,0.0,73,0.00,,,0.00,Wunderground v.1.15,2013-03-17 05:18:00,
2013-03-17 01:24:00,58.6,50.3,30.07,WSW,240,0.0,0.0,74,0.00,,,0.00,Wunderground v.1.15,2013-03-17 05:24:00,
2013-03-17 01:29:00,58.1,50.2,30.06,WSW,240,0.0,0.0,75,0.00,,,0.00,Wunderground v.1.15,2013-03-17 05:29:00,
2013-03-17 01:34:00,57.8,50.3,30.06,WSW,240,0.0,0.0,76,0.00,,,0.00,Wunderground v.1.15,2013-03-17 05:34:00,
2013-03-17 01:40:00,57.2,50.1,30.06,WSW,240,0.0,0.0,77,0.00,,,0.00,Wunderground v.1.15,2013-03-17 05:40:00,
2013-03-17 01:46:00,56.9,50.1,30.06,WSW,240,0.0,0.0,78,0.00,,,0.00,Wunderground v.1.15,2013-03-17 05:46:00,
2013-03-17 01:51:00,56.5,49.7,30.06,WSW,240,0.0,0.0,78,0.00,,,0.00,Wunderground v.1.15,2013-03-17 05:51:00,
2013-03-17 01:57:00,56.2,49.8,30.06,WSW,240,0.0,0.0,79,0.00,,,0.00,Wunderground v.1.15,2013-03-17 05:57:00,
2013-03-17 02:02:00,56.0,49.6,30.05,WSW,240,0.0,0.0,79,0.00,,,0.00,Wunderground v.1.15,2013-03-17 06:02:00,
2013-03-17 02:07:00,55.7,49.3,30.05,WSW,240,0.0,0.0,79,0.00,,,0.00,Wunderground v.1.15,2013-03-17 06:07:00,
2013-03-17 02:12:00,55.6,49.2,30.05,WSW,240,0.0,0.0,79,0.00,,,0.00,Wunderground v.1.15,2013-03-17 06:12:00,
2013-03-17 02:17:00,55.3,49.2,30.05,WSW,240,0.0,0.0,80,0.00,,,0.00,Wunderground v.1.15,2013-03-17 06:17:00,
2013-03-17 02:22:00,55.1,49.4,30.05,WSW,240,0.0,0.0,81,0.00,,,0.00,Wunderground v.1.15,2013-03-17 06:22:00,
2013-03-17 02:27:00,55.0,49.3,30.05,WSW,240,0.0,0.0,81,0.00,,,0.00,Wunderground v.1.15,2013-03-17 06:27:00,
2013-03-17 02:32:00,54.7,49.3,30.05,WSW,240,0.0,0.0,82,0.00,,,0.00,Wunderground v.1.15,2013-03-17 06:32:00,
2013-03-17 02:37:00,54.5,49.1,30.05,WSW,240,0.0,0.0,82,0.00,,,0.00,Wunderground v.1.15,2013-03-17 06:37:00,
2013-03-17 02:42:00,54.4,49.0,30.05,WSW,240,0.0,0.0,82,0.00,,,0.00,Wunderground v.1.15,2013-03-17 06:42:00,
2013-03-17 02:47:00,54.2,49.1,30.05,WSW,240,0.0,0.0,83,0.00,,,0.00,Wunderground v.1.15,2013-03-17 06:47:00,
2013-03-17 02:52:00,54.1,49.4,30.05,WSW,240,0.0,0.0,84,0.00,,,0.00,Wunderground v.1.15,2013-03-17 06:52:00,
2013-03-17 02:57:00,53.9,49.2,30.05,WSW,240,0.0,0.0,84,0.00,,,0.00,Wunderground v.1.15,2013-03-17 06:57:00,
2013-03-17 03:02:00,53.8,49.4,30.05,WSW,240,0.0,0.0,85,0.00,,,0.00,Wunderground v.1.15,2013-03-17 07:02:00,
2013-03-17 03:07:00,53.6,49.2,30.05,WSW,240,0.0,0.0,85,0.00,,,0.00,Wunderground v.1.15,2013-03-17 07:07:00,
2013-03-17 03:12:00,53.5,49.4,30.05,WSW,240,0.0,0.0,86,0.00,,,0.00,Wunderground v.1.15,2013-03-17 07:12:00,
2013-03-17 03:17:00,53.3,49.2,30.04,WSW,240,0.0,0.0,86,0.00,,,0.00,Wunderground v.1.15,2013-03-17 07:17:00,
2013-03-17 03:22:00,53.3,49.5,30.04,WSW,240,0.0,0.0,87,0.00,,,0.00,Wunderground v.1.15,2013-03-17 07:22:00,
2013-03-17 03:27:00,53.2,49.4,30.04,WSW,240,0.0,0.0,87,0.00,,,0.00,Wunderground v.1.15,2013-03-17 07:27:00,
2013-03-17 03:32:00,53.1,49.3,30.04,WSW,240,0.0,0.0,87,0.00,,,0.00,Wunderground v.1.15,2013-03-17 07:32:00,
2013-03-17 03:37:00,52.9,49.4,30.04,WSW,240,0.0,0.0,88,0.00,,,0.00,Wunderground v.1.15,2013-03-17 07:37:00,
2013-03-17 03:42:00,52.9,49.4,30.04,WSW,240,0.0,0.0,88,0.00,,,0.00,Wunderground v.1.15,2013-03-17 07:42:00,
2013-03-17 03:47:00,52.8,49.3,30.04,WSW,240,0.0,0.0,88,0.00,,,0.00,Wunderground v.1.15,2013-03-17 07:47:00,
2013-03-17 03:52:00,52.5,48.7,30.04,WSW,240,0.0,0.0,87,0.00,,,0.00,Wunderground v.1.15,2013-03-17 07:52:00,
2013-03-17 03:57:00,52.5,49.0,30.04,WSW,240,0.0,0.0,88,0.00,,,0.00,Wunderground v.1.15,2013-03-17 07:57:00,
2013-03-17 04:02:00,52.2,48.8,30.03,WSW,240,0.0,0.0,88,0.00,,,0.00,Wunderground v.1.15,2013-03-17 08:02:00,
2013-03-17 04:08:00,52.2,48.8,30.03,WSW,240,0.0,0.0,88,0.00,,,0.00,Wunderground v.1.15,2013-03-17 08:08:00,
2013-03-17 04:13:00,51.9,48.5,30.03,WSW,240,0.0,0.0,88,0.00,,,0.00,Wunderground v.1.15,2013-03-17 08:13:00,
2013-03-17 04:18:00,51.7,48.3,30.04,WSW,240,0.0,0.0,88,0.00,,,0.00,Wunderground v.1.15,2013-03-17 08:18:00,
2013-03-17 04:23:00,51.7,48.6,30.04,WSW,240,0.0,0.0,89,0.00,,,0.00,Wunderground v.1.15,2013-03-17 08:23:00,
2013-03-17 04:28:00,51.6,48.5,30.04,WSW,240,0.0,0.0,89,0.00,,,0.00,Wunderground v.1.15,2013-03-17 08:28:00,
2013-03-17 04:33:00,51.6,48.8,30.04,WSW,240,0.0,0.0,90,0.00,,,0.00,Wunderground v.1.15,2013-03-17 08:33:00,
2013-03-17 04:38:00,51.4,48.6,30.04,WSW,240,0.0,0.0,90,0.00,,,0.00,Wunderground v.1.15,2013-03-17 08:38:00,
2013-03-17 04:43:00,51.4,48.6,30.04,WSW,240,0.0,0.0,90,0.00,,,0.00,Wunderground v.1.15,2013-03-17 08:43:00,
2013-03-17 04:48:00,51.4,48.6,30.04,WSW,240,0.0,0.0,90,0.00,,,0.00,Wunderground v.1.15,2013-03-17 08:48:00,
2013-03-17 04:53:00,51.3,48.8,30.04,WSW,240,0.0,0.0,91,0.00,,,0.00,Wunderground v.1.15,2013-03-17 08:53:00,
2013-03-17 04:59:00,51.3,48.8,30.04,WSW,240,0.0,0.0,91,0.00,,,0.00,Wunderground v.1.15,2013-03-17 08:59:00,
2013-03-17 05:04:00,51.3,48.8,30.04,WSW,240,0.0,0.0,91,0.00,,,0.00,Wunderground v.1.15,2013-03-17 09:04:00,
2013-03-17 05:09:00,51.3,48.8,30.04,WSW,240,0.0,0.0,91,0.00,,,0.00,Wunderground v.1.15,2013-03-17 09:09:00,
2013-03-17 05:14:00,51.3,48.8,30.04,WSW,240,0.0,0.0,91,0.00,,,0.00,Wunderground v.1.15,2013-03-17 09:14:00,
2013-03-17 05:19:00,51.3,48.8,30.04,WSW,240,0.0,0.0,91,0.00,,,0.00,Wunderground v.1.15,2013-03-17 09:19:00,
2013-03-17 05:24:00,51.1,48.6,30.04,WSW,240,0.0,0.0,91,0.00,,,0.00,Wunderground v.1.15,2013-03-17 09:24:00,
2013-03-17 05:29:00,51.1,48.6,30.04,WSW,240,0.0,0.0,91,0.00,,,0.00,Wunderground v.1.15,2013-03-17 09:29:00,
2013-03-17 05:34:00,51.0,48.5,30.04,WSW,240,0.0,0.0,91,0.00,,,0.00,Wunderground v.1.15,2013-03-17 09:34:00,
2013-03-17 05:39:00,51.0,48.5,30.04,WSW,240,0.0,0.0,91,0.00,,,0.00,Wunderground v.1.15,2013-03-17 09:39:00,
2013-03-17 05:44:00,50.8,48.3,30.04,WSW,240,0.0,0.0,91,0.00,,,0.00,Wunderground v.1.15,2013-03-17 09:44:00,
2013-03-17 05:49:00,50.7,48.2,30.04,WSW,240,0.0,0.0,91,0.00,,,0.00,Wunderground v.1.15,2013-03-17 09:49:00,
2013-03-17 05:54:00,50.5,48.0,30.04,WSW,240,0.0,0.0,91,0.00,,,0.00,Wunderground v.1.15,2013-03-17 09:54:00,
2013-03-17 05:59:00,50.4,47.9,30.04,WSW,240,0.0,0.0,91,0.00,,,0.00,Wunderground v.1.15,2013-03-17 09:59:00,
2013-03-17 06:04:00,50.2,47.7,30.04,WSW,240,0.0,0.0,91,0.00,,,0.00,Wunderground v.1.15,2013-03-17 10:04:00,
2013-03-17 06:09:00,50.1,47.6,30.04,WSW,240,0.0,0.0,91,0.00,,,0.00,Wunderground v.1.15,2013-03-17 10:09:00,
2013-03-17 06:14:00,49.9,47.4,30.05,WSW,240,0.0,0.0,91,0.00,,,0.00,Wunderground v.1.15,2013-03-17 10:14:00,
2013-03-17 06:19:00,49.9,47.4,30.05,WSW,240,0.0,0.0,91,0.00,,,0.00,Wunderground v.1.15,2013-03-17 10:19:00,
2013-03-17 06:24:00,49.8,47.3,30.05,WSW,240,0.0,0.0,91,0.00,,,0.00,Wunderground v.1.15,2013-03-17 10:24:00,
2013-03-17 06:29:00,49.6,47.4,30.05,WSW,240,0.0,0.0,92,0.00,,,0.00,Wunderground v.1.15,2013-03-17 10:29:00,
2013-03-17 06:34:00,49.6,47.4,30.05,WSW,240,0.0,0.0,92,0.00,,,0.00,Wunderground v.1.15,2013-03-17 10:34:00,
2013-03-17 06:39:00,49.5,47.3,30.05,WSW,240,0.0,0.0,92,0.00,,,0.00,Wunderground v.1.15,2013-03-17 10:39:00,
2013-03-17 06:44:00,49.5,47.3,30.05,WSW,240,0.0,0.0,92,0.00,,,0.00,Wunderground v.1.15,2013-03-17 10:44:00,
2013-03-17 06:49:00,49.4,47.2,30.05,WSW,240,0.0,0.0,92,0.00,,,0.00,Wunderground v.1.15,2013-03-17 10:49:00,
2013-03-17 06:54:00,49.2,47.0,30.05,WSW,240,0.0,0.0,92,0.00,,,0.00,Wunderground v.1.15,2013-03-17 10:54:00,
2013-03-17 06:59:00,49.2,47.0,30.06,WSW,240,0.0,0.0,92,0.00,,,0.00,Wunderground v.1.15,2013-03-17 10:59:00,
2013-03-17 07:04:00,49.1,46.9,30.06,WSW,240,0.0,0.0,92,0.00,,,0.00,Wunderground v.1.15,2013-03-17 11:04:00,
2013-03-17 07:09:00,48.9,46.7,30.06,WSW,240,0.0,0.0,92,0.00,,,0.00,Wunderground v.1.15,2013-03-17 11:09:00,
2013-03-17 07:14:00,48.8,46.6,30.06,WSW,240,0.0,0.0,92,0.00,,,0.00,Wunderground v.1.15,2013-03-17 11:14:00,
2013-03-17 07:19:00,48.6,46.4,30.06,WSW,240,0.0,0.0,92,0.00,,,0.00,Wunderground v.1.15,2013-03-17 11:19:00,
2013-03-17 07:24:00,48.5,46.3,30.06,WSW,240,0.0,0.0,92,0.00,,,0.00,Wunderground v.1.15,2013-03-17 11:24:00,
2013-03-17 07:29:00,48.5,46.3,30.07,WSW,240,0.0,0.0,92,0.00,,,0.00,Wunderground v.1.15,2013-03-17 11:29:00,
2013-03-17 07:34:00,48.3,46.1,30.07,WSW,240,0.0,0.0,92,0.00,,,0.00,Wunderground v.1.15,2013-03-17 11:34:00,
2013-03-17 07:39:00,48.2,46.0,30.07,WSW,240,0.0,0.0,92,0.00,,,0.00,Wunderground v.1.15,2013-03-17 11:39:00,
2013-03-17 07:44:00,48.2,46.0,30.08,WSW,240,0.0,0.0,92,0.00,,,0.00,Wunderground v.1.15,2013-03-17 11:44:00,
2013-03-17 07:49:00,48.2,46.0,30.08,WSW,240,0.0,0.0,92,0.00,,,0.00,Wunderground v.1.15,2013-03-17 11:49:00,
2013-03-17 07:54:00,48.2,46.3,30.08,WSW,240,0.0,0.0,93,0.00,,,0.00,Wunderground v.1.15,2013-03-17 11:54:00,
2013-03-17 07:59:00,48.2,46.3,30.08,WSW,240,0.0,0.0,93,0.00,,,0.00,Wunderground v.1.15,2013-03-17 11:59:00,
2013-03-17 08:04:00,48.2,46.3,30.08,WSW,240,0.0,0.0,93,0.00,,,0.00,Wunderground v.1.15,2013-03-17 12:04:00,
2013-03-17 08:09:00,48.5,46.9,30.08,WSW,240,0.0,0.0,94,0.00,,,0.00,Wunderground v.1.15,2013-03-17 12:09:00,
2013-03-17 08:14:00,48.8,47.2,30.09,WSW,240,0.0,0.0,94,0.00,,,0.00,Wunderground v.1.15,2013-03-17 12:14:00,
2013-03-17 08:19:00,49.1,47.4,30.09,WSW,240,0.0,0.0,94,0.00,,,0.00,Wunderground v.1.15,2013-03-17 12:19:00,
2013-03-17 08:24:00,49.5,48.1,30.09,WSW,240,0.0,0.0,95,0.00,,,0.00,Wunderground v.1.15,2013-03-17 12:24:00,
2013-03-17 08:29:00,50.4,49.3,30.10,WSW,240,0.0,0.0,96,0.00,,,0.00,Wunderground v.1.15,2013-03-17 12:29:00,
2013-03-17 08:34:00,51.1,50.0,30.10,WSW,240,0.0,0.0,96,0.00,,,0.00,Wunderground v.1.15,2013-03-17 12:34:00,
2013-03-17 08:39:00,51.7,50.6,30.10,WSW,240,0.0,0.0,96,0.00,,,0.00,Wunderground v.1.15,2013-03-17 12:39:00,
2013-03-17 08:44:00,52.2,51.1,30.09,WSW,240,0.0,0.0,96,0.00,,,0.00,Wunderground v.1.15,2013-03-17 12:44:00,
2013-03-17 08:49:00,52.5,51.4,30.09,WSW,240,0.0,0.0,96,0.00,,,0.00,Wunderground v.1.15,2013-03-17 12:49:00,
2013-03-17 08:54:00,52.8,51.7,30.09,WSW,240,0.0,0.0,96,0.00,,,0.00,Wunderground v.1.15,2013-03-17 12:54:00,
2013-03-17 08:59:00,53.1,52.0,30.09,WSW,240,0.0,0.0,96,0.00,,,0.00,Wunderground v.1.15,2013-03-17 12:59:00,
2013-03-17 09:04:00,53.3,51.9,30.09,WSW,240,0.0,0.0,95,0.00,,,0.00,Wunderground v.1.15,2013-03-17 13:04:00,
2013-03-17 09:09:00,53.8,52.4,30.09,WSW,240,0.0,0.0,95,0.00,,,0.00,Wunderground v.1.15,2013-03-17 13:09:00,
2013-03-17 09:14:00,54.2,52.8,30.09,WSW,240,0.0,0.0,95,0.00,,,0.00,Wunderground v.1.15,2013-03-17 13:14:00,
2013-03-17 09:20:00,54.7,53.3,30.09,WSW,240,0.0,0.0,95,0.00,,,0.00,Wunderground v.1.15,2013-03-17 13:20:00,
2013-03-17 09:24:00,55.3,53.6,30.09,WSW,240,0.0,0.0,94,0.00,,,0.00,Wunderground v.1.15,2013-03-17 13:24:00,
2013-03-17 09:30:00,56.2,53.9,30.10,WSW,240,0.0,0.0,92,0.00,,,0.00,Wunderground v.1.15,2013-03-17 13:30:00,
2013-03-17 09:34:00,56.9,54.0,30.10,WSW,240,0.0,0.0,90,0.00,,,0.00,Wunderground v.1.15,2013-03-17 13:34:00,
2013-03-17 09:39:00,57.8,53.6,30.10,WSW,240,0.0,0.0,86,0.00,,,0.00,Wunderground v.1.15,2013-03-17 13:39:00,
2013-03-17 09:44:00,58.6,53.1,30.11,WSW,240,0.0,0.0,82,0.00,,,0.00,Wunderground v.1.15,2013-03-17 13:44:00,
2013-03-17 09:50:00,59.5,53.0,30.11,WSW,240,0.0,0.0,79,0.00,,,0.00,Wunderground v.1.15,2013-03-17 13:50:00,
2013-03-17 09:55:00,60.2,53.0,30.11,WSW,240,0.0,0.0,77,0.00,,,0.00,Wunderground v.1.15,2013-03-17 13:55:00,
2013-03-17 10:00:00,61.2,52.8,30.11,WSW,240,0.0,0.0,74,0.00,,,0.00,Wunderground v.1.15,2013-03-17 14:00:00,
2013-03-17 10:05:00,62.0,52.9,30.11,WSW,240,0.0,0.0,72,0.00,,,0.00,Wunderground v.1.15,2013-03-17 14:05:00,
2013-03-17 10:10:00,62.9,53.0,30.11,WSW,240,0.0,0.0,70,0.00,,,0.00,Wunderground v.1.15,2013-03-17 14:10:00,
2013-03-17 10:15:00,63.5,53.1,30.11,WSW,240,0.0,0.0,69,0.00,,,0.00,Wunderground v.1.15,2013-03-17 14:15:00,
2013-03-17 10:20:00,64.3,53.1,30.11,WSW,240,0.0,0.0,67,0.00,,,0.00,Wunderground v.1.15,2013-03-17 14:20:00,
2013-03-17 10:25:00,64.8,53.2,30.11,WSW,240,0.0,0.0,66,0.00,,,0.00,Wunderground v.1.15,2013-03-17 14:25:00,
2013-03-17 10:30:00,65.5,52.6,30.10,WSW,241,0.0,0.0,63,0.00,,,0.00,Wunderground v.1.15,2013-03-17 14:30:00,
2013-03-17 10:35:00,66.0,51.3,30.10,ESE,108,0.0,0.0,59,0.00,,,0.00,Wunderground v.1.15,2013-03-17 14:35:00,
2013-03-17 10:40:00,66.4,52.1,30.10,ESE,108,0.0,0.0,60,0.00,,,0.00,Wunderground v.1.15,2013-03-17 14:40:00,
2013-03-17 10:45:00,66.8,52.5,30.10,ESE,108,0.0,0.0,60,0.00,,,0.00,Wunderground v.1.15,2013-03-17 14:45:00,
2013-03-17 10:50:00,67.3,51.5,30.10,ESE,105,0.0,0.0,57,0.00,,,0.00,Wunderground v.1.15,2013-03-17 14:50:00,
2013-03-17 10:55:00,67.6,51.8,30.10,ESE,105,0.0,0.0,57,0.00,,,0.00,Wunderground v.1.15,2013-03-17 14:55:00,
2013-03-17 11:00:00,68.1,53.2,30.09,ESE,105,0.0,0.0,59,0.00,,,0.00,Wunderground v.1.15,2013-03-17 15:00:00,
2013-03-17 11:05:00,68.9,53.0,30.09,North,1,0.0,0.0,57,0.00,,,0.00,Wunderground v.1.15,2013-03-17 15:05:00,
2013-03-17 11:10:00,69.6,52.7,30.09,North,0,0.0,0.0,55,0.00,,,0.00,Wunderground v.1.15,2013-03-17 15:10:00,
2013-03-17 11:15:00,70.1,53.2,30.09,NNW,328,0.0,0.0,55,0.00,,,0.00,Wunderground v.1.15,2013-03-17 15:15:00,
2013-03-17 11:20:00,70.9,53.4,30.09,WNW,301,0.0,0.0,54,0.00,,,0.00,Wunderground v.1.15,2013-03-17 15:20:00,
2013-03-17 11:25:00,71.5,54.0,30.09,SW,219,0.0,1.0,54,0.00,,,0.00,Wunderground v.1.15,2013-03-17 15:25:00,
2013-03-17 11:30:00,72.0,54.4,30.09,SW,219,0.0,0.0,54,0.00,,,0.00,Wunderground v.1.15,2013-03-17 15:30:00,
2013-03-17 11:35:00,72.7,53.5,30.09,WSW,248,0.0,5.0,51,0.00,,,0.00,Wunderground v.1.15,2013-03-17 15:35:00,
2013-03-17 11:40:00,73.2,53.4,30.09,WSW,251,0.0,4.0,50,0.00,,,0.00,Wunderground v.1.15,2013-03-17 15:40:00,
2013-03-17 11:45:00,73.7,54.4,30.10,South,178,0.0,4.0,51,0.00,,,0.00,Wunderground v.1.15,2013-03-17 15:45:00,
2013-03-17 11:50:00,73.9,54.1,30.10,WSW,255,4.0,6.0,50,0.00,,,0.00,Wunderground v.1.15,2013-03-17 15:50:00,
2013-03-17 11:55:00,74.2,55.4,30.10,SW,216,0.0,6.0,52,0.00,,,0.00,Wunderground v.1.15,2013-03-17 15:55:00,
2013-03-17 12:00:00,74.9,54.4,30.10,WSW,238,0.0,4.0,49,0.00,,,0.00,Wunderground v.1.15,2013-03-17 16:00:00,
2013-03-17 12:05:00,75.6,54.5,30.10,WSW,240,4.0,9.0,48,0.00,,,0.00,Wunderground v.1.15,2013-03-17 16:05:00,
2013-03-17 12:10:00,76.0,54.9,30.10,South,184,0.0,1.0,48,0.00,,,0.00,Wunderground v.1.15,2013-03-17 16:10:00,
2013-03-17 12:15:00,76.3,54.6,30.09,SW,222,0.0,9.0,47,0.00,,,0.00,Wunderground v.1.15,2013-03-17 16:15:00,
2013-03-17 12:20:00,76.5,54.2,30.09,South,169,4.0,5.0,46,0.00,,,0.00,Wunderground v.1.15,2013-03-17 16:20:00,
2013-03-17 12:25:00,76.8,55.0,30.09,WSW,240,0.0,5.0,47,0.00,,,0.00,Wunderground v.1.15,2013-03-17 16:25:00,
2013-03-17 12:30:00,77.0,54.6,30.09,WSW,248,0.0,1.0,46,0.00,,,0.00,Wunderground v.1.15,2013-03-17 16:30:00,
2013-03-17 12:35:00,77.9,56.0,30.09,SE,135,1.0,9.0,47,0.00,,,0.00,Wunderground v.1.15,2013-03-17 16:35:00,
2013-03-17 12:40:00,78.3,54.6,30.09,SE,146,3.0,5.0,44,0.00,,,0.00,Wunderground v.1.15,2013-03-17 16:40:00,
2013-03-17 12:45:00,77.9,54.8,30.08,South,178,2.0,9.0,45,0.00,,,0.00,Wunderground v.1.15,2013-03-17 16:45:00,
2013-03-17 12:50:00,77.4,54.4,30.08,SSW,205,0.0,2.0,45,0.00,,,0.00,Wunderground v.1.15,2013-03-17 16:50:00,
2013-03-17 12:56:00,76.8,56.2,30.08,SSE,150,0.0,6.0,49,0.00,,,0.00,Wunderground v.1.15,2013-03-17 16:56:00,
2013-03-17 13:01:00,76.5,57.0,30.07,ENE,75,0.0,1.0,51,0.00,,,0.00,Wunderground v.1.15,2013-03-17 17:01:00,
2013-03-17 13:06:00,76.1,57.2,30.07,ENE,77,0.0,5.0,52,0.00,,,0.00,Wunderground v.1.15,2013-03-17 17:06:00,
2013-03-17 13:11:00,75.8,57.4,30.07,ESE,108,0.0,0.0,53,0.00,,,0.00,Wunderground v.1.15,2013-03-17 17:11:00,
2013-03-17 13:16:00,75.8,56.9,30.06,ESE,106,0.0,4.0,52,0.00,,,0.00,Wunderground v.1.15,2013-03-17 17:16:00,
2013-03-17 13:21:00,76.1,56.7,30.06,ENE,78,1.0,4.0,51,0.00,,,0.00,Wunderground v.1.15,2013-03-17 17:21:00,
2013-03-17 13:26:00,76.1,57.2,30.06,ESE,116,0.0,4.0,52,0.00,,,0.00,Wunderground v.1.15,2013-03-17 17:26:00,
2013-03-17 13:31:00,76.5,55.9,30.06,NE,48,0.0,3.0,49,0.00,,,0.00,Wunderground v.1.15,2013-03-17 17:31:00,
2013-03-17 13:36:00,77.0,56.9,30.06,NE,36,3.0,5.0,50,0.00,,,0.00,Wunderground v.1.15,2013-03-17 17:36:00,
2013-03-17 13:41:00,77.4,57.3,30.06,East,84,0.0,1.0,50,0.00,,,0.00,Wunderground v.1.15,2013-03-17 17:41:00,
2013-03-17 13:47:00,77.9,56.6,30.05,SSW,194,0.0,7.0,48,0.00,,,0.00,Wunderground v.1.15,2013-03-17 17:47:00,
2013-03-17 13:52:00,77.7,57.0,30.05,East,90,0.0,3.0,49,0.00,,,0.00,Wunderground v.1.15,2013-03-17 17:52:00,
2013-03-17 13:57:00,77.4,56.2,30.05,East,91,0.0,3.0,48,0.00,,,0.00,Wunderground v.1.15,2013-03-17 17:57:00,
2013-03-17 14:02:00,77.2,56.0,30.04,East,96,0.0,6.0,48,0.00,,,0.00,Wunderground v.1.15,2013-03-17 18:02:00,
2013-03-17 14:07:00,76.5,56.5,30.04,East,89,0.0,9.0,50,0.00,,,0.00,Wunderground v.1.15,2013-03-17 18:07:00,
2013-03-17 14:12:00,76.1,56.1,30.04,ESE,107,0.0,5.0,50,0.00,,,0.00,Wunderground v.1.15,2013-03-17 18:12:00,
2013-03-17 14:17:00,75.6,56.2,30.04,South,174,5.0,6.0,51,0.00,,,0.00,Wunderground v.1.15,2013-03-17 18:17:00,
2013-03-17 14:22:00,75.1,56.8,30.04,East,96,0.0,1.0,53,0.00,,,0.00,Wunderground v.1.15,2013-03-17 18:22:00,
2013-03-17 14:27:00,75.1,57.3,30.04,NE,51,0.0,3.0,54,0.00,,,0.00,Wunderground v.1.15,2013-03-17 18:27:00,
2013-03-17 14:32:00,75.1,56.8,30.03,SE,143,0.0,5.0,53,0.00,,,0.00,Wunderground v.1.15,2013-03-17 18:32:00,
2013-03-17 14:37:00,74.6,56.9,30.03,SE,145,9.0,10.0,54,0.00,,,0.00,Wunderground v.1.15,2013-03-17 18:37:00,
2013-03-17 14:42:00,74.0,57.3,30.03,SE,124,0.0,6.0,56,0.00,,,0.00,Wunderground v.1.15,2013-03-17 18:42:00,
2013-03-17 14:47:00,74.0,57.3,30.03,East,85,0.0,6.0,56,0.00,,,0.00,Wunderground v.1.15,2013-03-17 18:47:00,
2013-03-17 14:52:00,73.7,57.0,30.03,East,86,0.0,0.0,56,0.00,,,0.00,Wunderground v.1.15,2013-03-17 18:52:00,
2013-03-17 14:57:00,73.9,56.7,30.03,East,93,1.0,7.0,55,0.00,,,0.00,Wunderground v.1.15,2013-03-17 18:57:00,
2013-03-17 15:02:00,73.7,57.0,30.01,ENE,59,0.0,4.0,56,0.00,,,0.00,Wunderground v.1.15,2013-03-17 19:02:00,
2013-03-17 15:07:00,73.7,57.5,30.01,SE,124,0.0,6.0,57,0.00,,,0.00,Wunderground v.1.15,2013-03-17 19:07:00,
2013-03-17 15:12:00,73.9,57.7,30.01,ESE,115,2.0,7.0,57,0.00,,,0.00,Wunderground v.1.15,2013-03-17 19:12:00,
2013-03-17 15:17:00,74.4,57.7,30.01,SSE,151,0.0,7.0,56,0.00,,,0.00,Wunderground v.1.15,2013-03-17 19:17:00,
2013-03-17 15:22:00,75.4,58.1,30.01,NE,48,7.0,10.0,55,0.00,,,0.00,Wunderground v.1.15,2013-03-17 19:22:00,
2013-03-17 15:27:00,76.1,57.2,30.01,SE,143,8.0,10.0,52,0.00,,,0.00,Wunderground v.1.15,2013-03-17 19:27:00,
2013-03-17 15:33:00,76.3,57.9,30.01,East,99,0.0,5.0,53,0.00,,,0.00,Wunderground v.1.15,2013-03-17 19:33:00,
2013-03-17 15:38:00,77.0,58.6,30.01,SSE,160,4.0,8.0,53,0.00,,,0.00,Wunderground v.1.15,2013-03-17 19:38:00,
2013-03-17 15:43:00,77.4,58.4,30.01,ESE,110,0.0,6.0,52,0.00,,,0.00,Wunderground v.1.15,2013-03-17 19:43:00,
2013-03-17 15:48:00,77.2,58.7,30.00,SSE,147,1.0,8.0,53,0.00,,,0.00,Wunderground v.1.15,2013-03-17 19:48:00,
2013-03-17 15:53:00,77.2,58.2,30.00,SSE,153,0.0,3.0,52,0.00,,,0.00,Wunderground v.1.15,2013-03-17 19:53:00,
2013-03-17 15:58:00,77.4,57.9,30.00,SE,131,7.0,11.0,51,0.00,,,0.00,Wunderground v.1.15,2013-03-17 19:58:00,
2013-03-17 16:03:00,77.0,58.0,30.00,SSE,154,6.0,9.0,52,0.00,,,0.00,Wunderground v.1.15,2013-03-17 20:03:00,
2013-03-17 16:08:00,76.3,57.9,30.00,ESE,122,2.0,9.0,53,0.00,,,0.00,Wunderground v.1.15,2013-03-17 20:08:00,
2013-03-17 16:13:00,75.1,57.8,30.00,SSE,152,0.0,6.0,55,0.00,,,0.00,Wunderground v.1.15,2013-03-17 20:13:00,
2013-03-17 16:18:00,74.6,57.9,30.00,SE,131,2.0,12.0,56,0.00,,,0.00,Wunderground v.1.15,2013-03-17 20:18:00,
2013-03-17 16:23:00,74.0,57.8,30.00,East,97,0.0,7.0,57,0.00,,,0.00,Wunderground v.1.15,2013-03-17 20:23:00,
2013-03-17 16:28:00,73.9,57.7,30.00,ESE,113,0.0,9.0,57,0.00,,,0.00,Wunderground v.1.15,2013-03-17 20:28:00,
2013-03-17 16:33:00,73.9,58.7,30.00,SSE,152,0.0,5.0,59,0.00,,,0.00,Wunderground v.1.15,2013-03-17 20:33:00,
2013-03-17 16:38:00,73.5,58.3,30.00,SSE,165,0.0,5.0,59,0.00,,,0.00,Wunderground v.1.15,2013-03-17 20:38:00,
2013-03-17 16:43:00,73.3,57.6,30.00,East,80,0.0,11.0,58,0.00,,,0.00,Wunderground v.1.15,2013-03-17 20:43:00,
2013-03-17 16:48:00,73.0,57.8,30.00,SSE,164,0.0,11.0,59,0.00,,,0.00,Wunderground v.1.15,2013-03-17 20:48:00,
2013-03-17 16:53:00,72.7,57.5,30.00,SE,124,5.0,9.0,59,0.00,,,0.00,Wunderground v.1.15,2013-03-17 20:53:00,
2013-03-17 16:58:00,72.3,58.1,30.00,SE,131,1.0,9.0,61,0.00,,,0.00,Wunderground v.1.15,2013-03-17 20:58:00,
2013-03-17 17:04:00,72.0,58.3,30.00,ESE,121,0.0,6.0,62,0.00,,,0.00,Wunderground v.1.15,2013-03-17 21:04:00,
2013-03-17 17:09:00,72.0,58.3,30.00,SSE,148,0.0,9.0,62,0.00,,,0.00,Wunderground v.1.15,2013-03-17 21:09:00,
2013-03-17 17:14:00,71.8,58.1,30.00,ESE,105,0.0,8.0,62,0.00,,,0.00,Wunderground v.1.15,2013-03-17 21:14:00,
2013-03-17 17:19:00,71.8,58.5,30.00,ESE,120,0.0,8.0,63,0.00,,,0.00,Wunderground v.1.15,2013-03-17 21:19:00,
2013-03-17 17:24:00,71.8,58.5,30.00,SSE,147,0.0,9.0,63,0.00,,,0.00,Wunderground v.1.15,2013-03-17 21:24:00,
2013-03-17 17:29:00,71.8,58.5,30.00,SE,141,0.0,9.0,63,0.00,,,0.00,Wunderground v.1.15,2013-03-17 21:29:00,
2013-03-17 17:34:00,71.6,58.8,30.00,SE,146,0.0,9.0,64,0.00,,,0.00,Wunderground v.1.15,2013-03-17 21:34:00,
2013-03-17 17:39:00,71.6,58.3,30.00,ESE,122,0.0,9.0,63,0.00,,,0.00,Wunderground v.1.15,2013-03-17 21:39:00,
2013-03-17 17:44:00,71.6,58.8,30.00,South,181,0.0,2.0,64,0.00,,,0.00,Wunderground v.1.15,2013-03-17 21:44:00,
2013-03-17 17:49:00,71.6,58.8,30.00,East,100,0.0,2.0,64,0.00,,,0.00,Wunderground v.1.15,2013-03-17 21:49:00,
2013-03-17 17:54:00,71.6,58.8,30.00,East,88,0.0,0.0,64,0.00,,,0.00,Wunderground v.1.15,2013-03-17 21:54:00,
2013-03-17 17:59:00,71.5,58.7,30.00,East,84,0.0,7.0,64,0.00,,,0.00,Wunderground v.1.15,2013-03-17 21:59:00,
2013-03-17 18:05:00,71.5,59.1,30.00,SSE,154,0.0,0.0,65,0.00,,,0.00,Wunderground v.1.15,2013-03-17 22:05:00,
2013-03-17 18:10:00,71.3,59.4,30.00,SE,139,0.0,0.0,66,0.00,,,0.00,Wunderground v.1.15,2013-03-17 22:10:00,
2013-03-17 18:15:00,71.3,59.4,29.98,SSE,149,0.0,4.0,66,0.00,,,0.00,Wunderground v.1.15,2013-03-17 22:15:00,
2013-03-17 18:20:00,71.1,59.2,29.98,ESE,103,2.0,5.0,66,0.00,,,0.00,Wunderground v.1.15,2013-03-17 22:20:00,
2013-03-17 18:25:00,71.1,58.7,29.98,SE,138,0.0,5.0,65,0.00,,,0.00,Wunderground v.1.15,2013-03-17 22:25:00,
2013-03-17 18:30:00,70.9,58.1,29.99,SSE,162,4.0,5.0,64,0.00,,,0.00,Wunderground v.1.15,2013-03-17 22:30:00,
2013-03-17 18:35:00,70.9,57.7,29.99,South,170,5.0,8.0,63,0.00,,,0.00,Wunderground v.1.15,2013-03-17 22:35:00,
2013-03-17 18:40:00,70.8,57.6,29.99,SSE,151,0.0,2.0,63,0.00,,,0.00,Wunderground v.1.15,2013-03-17 22:40:00,
2013-03-17 18:45:00,70.8,57.1,29.99,SSW,198,0.0,10.0,62,0.00,,,0.00,Wunderground v.1.15,2013-03-17 22:45:00,
2013-03-17 18:50:00,70.8,57.6,29.99,East,100,3.0,3.0,63,0.00,,,0.00,Wunderground v.1.15,2013-03-17 22:50:00,
2013-03-17 18:55:00,70.8,57.1,29.99,SE,145,6.0,6.0,62,0.00,,,0.00,Wunderground v.1.15,2013-03-17 22:55:00,
2013-03-17 19:00:00,70.6,57.4,29.99,South,170,0.0,2.0,63,0.00,,,0.00,Wunderground v.1.15,2013-03-17 23:00:00,
2013-03-17 19:05:00,70.6,57.4,29.99,SE,140,0.0,7.0,63,0.00,,,0.00,Wunderground v.1.15,2013-03-17 23:05:00,
2013-03-17 19:10:00,70.4,57.2,29.99,SE,145,0.0,2.0,63,0.00,,,0.00,Wunderground v.1.15,2013-03-17 23:10:00,
2013-03-17 19:15:00,70.4,57.2,29.98,SE,143,3.0,8.0,63,0.00,,,0.00,Wunderground v.1.15,2013-03-17 23:15:00,
2013-03-17 19:20:00,70.3,57.5,29.98,ESE,120,0.0,1.0,64,0.00,,,0.00,Wunderground v.1.15,2013-03-17 23:20:00,
2013-03-17 19:25:00,70.3,57.5,29.98,SSE,156,3.0,12.0,64,0.00,,,0.00,Wunderground v.1.15,2013-03-17 23:25:00,
2013-03-17 19:30:00,70.1,57.4,29.97,South,172,0.0,3.0,64,0.00,,,0.00,Wunderground v.1.15,2013-03-17 23:30:00,
2013-03-17 19:35:00,69.9,57.6,29.97,South,180,1.0,7.0,65,0.00,,,0.00,Wunderground v.1.15,2013-03-17 23:35:00,
2013-03-17 19:40:00,69.9,57.6,29.97,East,86,0.0,1.0,65,0.00,,,0.00,Wunderground v.1.15,2013-03-17 23:40:00,
2013-03-17 19:45:00,69.9,57.6,29.98,SE,131,5.0,7.0,65,0.00,,,0.00,Wunderground v.1.15,2013-03-17 23:45:00,
2013-03-17 19:50:00,69.9,57.6,29.98,South,172,4.0,5.0,65,0.00,,,0.00,Wunderground v.1.15,2013-03-17 23:50:00,
2013-03-17 19:55:00,69.9,57.6,29.98,SSE,159,9.0,13.0,65,0.00,,,0.00,Wunderground v.1.15,2013-03-17 23:55:00,
2013-03-17 20:00:00,69.9,57.6,29.98,SE,130,0.0,4.0,65,0.00,,,0.00,Wunderground v.1.15,2013-03-18 00:00:00,
2013-03-17 20:05:00,69.8,57.5,29.98,SSE,149,0.0,9.0,65,0.00,,,0.00,Wunderground v.1.15,2013-03-18 00:05:00,
2013-03-17 20:10:00,69.8,57.5,29.98,SSE,164,0.0,2.0,65,0.00,,,0.00,Wunderground v.1.15,2013-03-18 00:10:00,
2013-03-17 20:15:00,69.8,57.5,29.99,South,174,0.0,7.0,65,0.00,,,0.00,Wunderground v.1.15,2013-03-18 00:15:00,
2013-03-17 20:20:00,69.8,57.5,29.99,SSE,151,5.0,5.0,65,0.00,,,0.00,Wunderground v.1.15,2013-03-18 00:20:00,
2013-03-17 20:25:00,69.6,57.3,29.99,South,175,4.0,11.0,65,0.00,,,0.00,Wunderground v.1.15,2013-03-18 00:25:00,
2013-03-17 20:31:00,69.6,57.3,29.99,SSE,154,6.0,6.0,65,0.00,,,0.00,Wunderground v.1.15,2013-03-18 00:31:00,
2013-03-17 20:36:00,69.6,57.3,29.99,SSE,159,0.0,12.0,65,0.00,,,0.00,Wunderground v.1.15,2013-03-18 00:36:00,
2013-03-17 20:41:00,69.6,57.7,29.99,SSE,164,0.0,2.0,66,0.00,,,0.00,Wunderground v.1.15,2013-03-18 00:41:00,
2013-03-17 20:46:00,69.6,57.7,29.99,SSE,166,0.0,2.0,66,0.00,,,0.00,Wunderground v.1.15,2013-03-18 00:46:00,
2013-03-17 20:51:00,69.6,57.7,29.99,SSE,161,0.0,5.0,66,0.00,,,0.00,Wunderground v.1.15,2013-03-18 00:51:00,
2013-03-17 20:56:00,69.6,57.7,29.99,South,179,6.0,8.0,66,0.00,,,0.00,Wunderground v.1.15,2013-03-18 00:56:00,
2013-03-17 21:01:00,69.6,57.7,29.99,SSE,151,1.0,7.0,66,0.00,,,0.00,Wunderground v.1.15,2013-03-18 01:01:00,
2013-03-17 21:06:00,69.4,58.0,29.99,SE,129,0.0,9.0,67,0.00,,,0.00,Wunderground v.1.15,2013-03-18 01:06:00,
2013-03-17 21:11:00,69.4,58.0,29.99,SSW,199,1.0,4.0,67,0.00,,,0.00,Wunderground v.1.15,2013-03-18 01:11:00,
2013-03-17 21:16:00,69.4,58.0,30.00,South,174,0.0,6.0,67,0.00,,,0.00,Wunderground v.1.15,2013-03-18 01:16:00,
2013-03-17 21:21:00,69.4,58.0,30.00,South,177,0.0,1.0,67,0.00,,,0.00,Wunderground v.1.15,2013-03-18 01:21:00,
2013-03-17 21:26:00,69.4,58.0,30.00,SE,143,0.0,7.0,67,0.00,,,0.00,Wunderground v.1.15,2013-03-18 01:26:00,
2013-03-17 21:31:00,69.4,58.0,30.01,SE,137,0.0,7.0,67,0.00,,,0.00,Wunderground v.1.15,2013-03-18 01:31:00,
2013-03-17 21:36:00,69.3,57.9,30.01,SSE,168,0.0,8.0,67,0.00,,,0.00,Wunderground v.1.15,2013-03-18 01:36:00,
2013-03-17 21:42:00,69.3,57.9,30.01,SSE,148,0.0,7.0,67,0.00,,,0.00,Wunderground v.1.15,2013-03-18 01:42:00,
2013-03-17 21:47:00,69.3,57.9,30.01,South,181,0.0,7.0,67,0.00,,,0.00,Wunderground v.1.15,2013-03-18 01:47:00,
2013-03-17 21:52:00,69.3,57.9,30.01,SW,214,0.0,1.0,67,0.00,,,0.00,Wunderground v.1.15,2013-03-18 01:52:00,
2013-03-17 21:57:00,69.1,57.7,30.01,SSW,193,0.0,4.0,67,0.00,,,0.00,Wunderground v.1.15,2013-03-18 01:57:00,
2013-03-17 22:02:00,69.1,57.7,30.01,SSW,198,1.0,5.0,67,0.00,,,0.00,Wunderground v.1.15,2013-03-18 02:02:00,
2013-03-17 22:07:00,69.1,58.1,30.01,SSW,207,0.0,5.0,68,0.00,,,0.00,Wunderground v.1.15,2013-03-18 02:07:00,
2013-03-17 22:12:00,68.9,57.9,30.01,SSW,200,0.0,1.0,68,0.00,,,0.00,Wunderground v.1.15,2013-03-18 02:12:00,
2013-03-17 22:17:00,68.8,57.8,30.01,SSE,163,0.0,5.0,68,0.00,,,0.00,Wunderground v.1.15,2013-03-18 02:17:00,
2013-03-17 22:22:00,68.6,58.0,30.01,South,186,0.0,0.0,69,0.00,,,0.00,Wunderground v.1.15,2013-03-18 02:22:00,
2013-03-17 22:27:00,68.4,57.8,30.01,South,183,0.0,0.0,69,0.00,,,0.00,Wunderground v.1.15,2013-03-18 02:27:00,
2013-03-17 22:32:00,68.3,57.7,30.02,SSE,151,0.0,2.0,69,0.00,,,0.00,Wunderground v.1.15,2013-03-18 02:32:00,
2013-03-17 22:37:00,68.1,57.9,30.02,SSE,153,0.0,2.0,70,0.00,,,0.00,Wunderground v.1.15,2013-03-18 02:37:00,
2013-03-17 22:42:00,67.9,57.8,30.02,SSE,153,0.0,0.0,70,0.00,,,0.00,Wunderground v.1.15,2013-03-18 02:42:00,
2013-03-17 22:47:00,67.9,57.8,30.01,South,179,0.0,0.0,70,0.00,,,0.00,Wunderground v.1.15,2013-03-18 02:47:00,
2013-03-17 22:52:00,67.9,57.8,30.01,South,169,0.0,0.0,70,0.00,,,0.00,Wunderground v.1.15,2013-03-18 02:52:00,
2013-03-17 22:57:00,67.9,57.8,30.01,South,174,0.0,0.0,70,0.00,,,0.00,Wunderground v.1.15,2013-03-18 02:57:00,
2013-03-17 23:02:00,67.9,57.8,30.02,South,183,0.0,0.0,70,0.00,,,0.00,Wunderground v.1.15,2013-03-18 03:02:00,
2013-03-17 23:07:00,67.9,57.8,30.02,South,189,0.0,0.0,70,0.00,,,0.00,Wunderground v.1.15,2013-03-18 03:07:00,
2013-03-17 23:12:00,67.9,57.8,30.02,SSE,167,0.0,1.0,70,0.00,,,0.00,Wunderground v.1.15,2013-03-18 03:12:00,
2013-03-17 23:17:00,67.9,58.1,30.02,South,169,0.0,1.0,71,0.00,,,0.00,Wunderground v.1.15,2013-03-18 03:17:00,
2013-03-17 23:22:00,67.9,58.1,30.02,SSW,195,0.0,0.0,71,0.00,,,0.00,Wunderground v.1.15,2013-03-18 03:22:00,
2013-03-17 23:27:00,67.8,58.1,30.02,SSW,198,0.0,0.0,71,0.00,,,0.00,Wunderground v.1.15,2013-03-18 03:27:00,
2013-03-17 23:32:00,67.8,58.1,30.03,South,179,0.0,1.0,71,0.00,,,0.00,Wunderground v.1.15,2013-03-18 03:32:00,
2013-03-17 23:37:00,67.8,58.1,30.03,South,191,0.0,1.0,71,0.00,,,0.00,Wunderground v.1.15,2013-03-18 03:37:00,
2013-03-17 23:43:00,67.8,57.7,30.03,SSE,162,2.0,2.0,70,0.00,,,0.00,Wunderground v.1.15,2013-03-18 03:43:00,
2013-03-17 23:48:00,67.8,57.7,30.03,SSE,157,6.0,6.0,70,0.00,,,0.00,Wunderground v.1.15,2013-03-18 03:48:00,
2013-03-17 23:53:00,67.8,57.7,30.03,South,188,0.0,3.0,70,0.00,,,0.00,Wunderground v.1.15,2013-03-18 03:53:00,
2013-03-17 23:58:00,67.8,57.7,30.03,SSW,206,0.0,4.0,70,0.00,,,0.00,Wunderground v.1.15,2013-03-18 03:58:00,